Volver al catálogo

CZ-6A DEB

ActivoPO
NORAD 56271·DEBRIS·🇨🇳 China

Lanzado Nov 11, 2022 desde Taiyuan Satellite Launch Center

Loading…

Próximos Pases (próximas 24 horas)

TLE

ActualizadoSource: Space-Track

Época: Sep 14, 2026, 09:50 UTC

1 56271U 22151ACP 26257.40986324  .00010885  00000-0  14092-2 0  9990
2 56271  98.5307 313.0983 0044309 351.6031   8.4433 14.80358701185273

Sigue CZ-6A DEB en tiempo real con AllMySat

Download on the App Store